GPS BIIF-5 (PRN 30)

Last updated on Wed Jun 24 2026 00:03:27 GMT+0000 (Coordinated Universal Time)

1 39533U 14008A 26173.66924921 .00000071 00000+0 00000+0 0 9990 2 39533 53.6555 149.0961 0084231 231.3612 127.8645 2.00560153 89798
UTC large
Height (km)
Speed (km/s)
/
Latitude / Longitude
Inclination (degrees)
Orbital Period (minutes)
Azimuth
Elevation
Range (km)
Doppler Factor

Next 0 passes for location: London (51.5072 / 0.1276)

No passes found over London.
GPS BIIF-5 (PRN 30)